COSMOS 2251 DEB

Satellite information

Favourite Embed

Satellite Type and Status

DEBRISIN ORBIT

Key statistics

Satellite COSMOS 2251 DEB at a glance.

Uptime

11649

Days in orbit

Revolutions

≈ 15.6

Per day

Orbit

LEO

Low Earth Orbit

Inclination

74.0

Latest

Satellite identification and parameters

Extended collection of information and parameters for COSMOS 2251 DEB.

Object identification

Identified? True

Debris? True

Object name: COSMOS 2251 DEB

International designator: 1993-036AAR

Object number (NORAD): 34788

Object ID (CCSDS): 34788

Country: COMMONWEALTH OF INDEPENDENT STATES (CIS)

Current information (Y/N): Y

RCS size: SMALL

Orbital parameters

Period: 92.334 minutes

Inclination: 73.9529 deg

SMA: 6767.068 km

Apoapsis: 418.365 km

Periapsis: 359.502 km

RAAN: 58.5034 deg

Eccentricy: 0.0043492

Argument of periapsis: 225.9306 deg

Mean anomaly: 133.8329 deg

Mean motion: 15.5955945 rev/day

Mean motion (dot): 0.00131384 rev/day2

B* drag term: 0.0015558 1/REarth

Two-line elements (TLE)

Creation date: May 8, 2025, 3:01 a.m.

Reference frame: TEME

Reference center: EARTH

Epoch: May 7, 2025, 5:42 a.m. UTC

TLE line 0: 0 COSMOS 2251 DEB

TLE line 1: 1 34788U 93036AAR 25127.23778620 .00131384 00000-0 15558-2 0 9999

TLE line 2: 2 34788 73.9529 58.5034 0043492 225.9306 133.8329 15.59559450880958

Live tracking on map

Real-time ground track for satellite COSMOS 2251 DEB.

In-orbit conjunctions

A list of the most updated potential collisions computed for object COSMOS 2251 DEB.

Target Orbit TCA Probability of collision Miss distance Type
H-2A R/B SSO 2024-09-18 06:07:08 0.000168755 45.0 (m) ROCKET BODY
CZ-2D DEB SSO 2024-06-17 18:44:53 0.0001063449 426.0 (m) DEBRIS

Associated space launch

Military communications satellite. Destroyed in a collision with Iridium 33.

COSMOS 2251 DEB was lifted into orbit during the mission ‘Kosmos-3M | Strela-2M 51’, on board a Kosmos-3M space rocket.

The launch took place on June 16, 1993, 4:17 a.m. from 132/1 (132L).

For more information about the launch, click the button.

Launch to space Kosmos-3M | Strela-2M 51
Kosmos-3M | Strela-2M 51

Agency: N/A

Status: Launch Successful

Launch date: June 16, 1993, 4:17 a.m. UTC

Rocket: Kosmos-3M

Launch pad: 132/1 (132L)

Location: Plesetsk Cosmodrome, Russian Federation

...

Latest news about this satellite

There are no fresh news available about this satellite. Check back as we update our databases every day.


Newsletter sign-up

Weekly statistics, charts and insights to help you stay on top of the space industry.